Location: Veytaux
(46.4185°N, 6.9320°E)
Time: 07:37:10
(UTC+00:00)

Meteor 2-1 Rocket - Pass Details

Date: 27 May 2022
Orbit: 826 x 910 km, 81.3° (Epoch: 01 July)

Event Time Altitude Azimuth Distance (km) Brightness Sun altitude
Rises 02:36:25 0° 346° (NNW) 3,497 7.9 -10.2°
Reaches altitude 10° 02:38:54 10° 344° (NNW) 2,541 7.1 -9.9°
Maximum altitude 02:44:36 64° 264° (W) 950 4.3 -9.2°
Drops below altitude 10° 02:50:08 10° 184° (S) 2,467 6.2 -8.5°
Sets 02:52:31 0° 181° (S) 3,387 6.9 -8.2°
